This demonstration page uses our WeatherBlox Daily Observations layout. Learn more.

Left ArrowRight Arrow

34.16533, -84.80231

Hourly Observations for October 28, 2021

Temp ( °F °C ) Dew Point ( °F °C ) Humidity (%) Winds ( mph kmh ) Pressure ( in mb ) Visibility ( mi km ) Precip ( " mm )
12:15 am 00:15 Cloudy 57 14 50 10 77 77 VRB 3 6 29.82 1010 10 16 N/A
12:35 am 00:35 Cloudy 55 13 50 10 82 82 N N/A 29.82 1010 10 16 N/A
12:55 am 00:55 Cloudy 55 13 50 10 82 82 N N/A 29.82 1010 10 16 N/A
1:15 am 01:15 Cloudy 55 13 50 10 82 82 N N/A 29.82 1010 10 16 N/A
1:35 am 01:35 Cloudy 57 14 48 9 72 72 E 5 7 29.83 1010 10 16 N/A
1:55 am 01:55 Partly Cloudy 57 14 48 9 72 72 E 5 7 29.82 1010 10 16 N/A
2:15 am 02:15 Clear 55 13 50 10 82 82 N N/A 29.82 1010 10 16 N/A
2:35 am 02:35 Clear 55 13 50 10 82 82 N N/A 29.84 1011 10 16 N/A
2:55 am 02:55 Partly Cloudy 57 14 48 9 72 72 E 5 7 29.82 1010 10 16 N/A
3:15 am 03:15 Cloudy 57 14 48 9 72 72 ESE 12 19 29.75 1007 10 16 N/A
3:35 am 03:35 Mostly Cloudy 57 14 48 9 72 72 VRB 7 11 29.77 1008 10 16 N/A
3:55 am 03:55 Cloudy 59 15 48 9 68 68 ESE 9 15 29.75 1007 10 16 N/A
4:15 am 04:15 Cloudy with Light Rain 59 15 46 8 63 63 VRB 7 11 29.75 1007 10 16 N/A
4:35 am 04:35 Cloudy with Light Rain 57 14 48 9 72 72 ESE 7 11 29.76 1008 9 14 N/A
4:55 am 04:55 Cloudy with Light Rain 57 14 50 10 77 77 ESE 10 17 29.74 1007 8 13 N/A
5:15 am 05:15 Cloudy with Light Rain 57 14 50 10 77 77 ESE 9 15 29.71 1006 10 16 N/A
5:35 am 05:35 Cloudy with Light Rain 55 13 50 10 82 82 ESE 13 20 29.69 1005 7 11 N/A
5:55 am 05:55 Mostly Cloudy with Light Rain 55 13 50 10 82 82 E 13 20 29.67 1005 9 14 0.01 0.25
6:15 am 06:15 Mostly Cloudy 55 13 50 10 82 82 ESE 9 15 29.68 1005 10 16 N/A
6:35 am 06:35 Cloudy 55 13 50 10 82 82 E 8 13 29.69 1005 10 16 N/A
6:55 am 06:55 Cloudy 55 13 50 10 82 82 ESE 13 20 29.68 1005 10 16 N/A
7:15 am 07:15 Cloudy with Light Rain 55 13 50 10 82 82 VRB 7 11 29.66 1004 7 11 N/A
7:35 am 07:35 Cloudy with Light Rain 55 13 52 11 88 88 ESE 7 11 29.68 1005 9 14 N/A
7:55 am 07:55 Cloudy with Light Rain 55 13 52 11 88 88 E 10 17 29.66 1004 9 14 0.01 0.25
8:15 am 08:15 Cloudy 55 13 52 11 88 88 E 12 19 29.66 1004 9 14 N/A
8:35 am 08:35 Cloudy 55 13 52 11 88 88 ESE 14 22 29.64 1004 10 16 N/A
8:55 am 08:55 Cloudy 55 13 52 11 88 88 E 10 17 29.64 1004 10 16 N/A
9:15 am 09:15 Cloudy with Light Rain 55 13 52 11 88 88 E 14 22 29.63 1003 8 13 N/A
9:35 am 09:35 Cloudy with Light Rain 55 13 52 11 88 88 ESE 13 20 29.63 1003 3 5 N/A
9:55 am 09:55 Cloudy with Light Rain 55 13 52 11 88 88 ESE 13 20 29.63 1003 7 11 N/A
10:15 am 10:15 Mostly Cloudy with Light Rain 55 13 52 11 88 88 ESE 15 24 29.63 1003 5 8 N/A
10:35 am 10:35 Cloudy with Mist and Fog 54 12 52 11 94 94 ESE 14 22 29.63 1004 6 10 N/A
10:55 am 10:55 Cloudy with Light Rain 54 12 52 11 94 94 ESE 14 22 29.62 1003 3 4 0.03 0.76
11:15 am 11:15 Cloudy with Light Rain 54 12 52 11 94 94 ESE 9 15 29.63 1004 2 3 N/A
11:35 am 11:35 Cloudy with Light Rain 54 12 52 11 94 94 ESE 13 20 29.63 1004 2 3 N/A
11:55 am 11:55 Mostly Cloudy with Light Rain 54 12 54 12 100 100 E 13 20 29.62 1003 2 3 0.09 2.29
12:15 pm 12:15 Mostly Cloudy with Light Rain 54 12 54 12 100 100 ESE 13 20 29.61 1003 3 4 N/A
12:35 pm 12:35 Mostly Cloudy with Light Rain 54 12 54 12 100 100 ESE 12 19 29.61 1003 2 3 N/A
12:55 pm 12:55 Mostly Cloudy with Light Rain 54 12 54 12 100 100 ESE 8 13 29.61 1003 2 3 0.05 1.27
1:15 pm 13:15 Mostly Cloudy with Light Rain 55 13 54 12 94 94 VRB 7 11 29.60 1002 2 3 N/A
1:35 pm 13:35 Mostly Cloudy with Light Rain 55 13 54 12 94 94 ESE 8 13 29.60 1002 3 4 N/A
1:55 pm 13:55 Cloudy with Light Rain 55 13 54 12 94 94 ESE 12 19 29.59 1002 2 3 0.04 1.02
2:15 pm 14:15 Mostly Cloudy with Light Rain 55 13 54 12 94 94 ESE 7 11 29.59 1002 2 3 N/A
2:35 pm 14:35 Mostly Cloudy with Light Rain 55 13 55 13 100 100 ESE 8 13 29.58 1002 4 6 N/A
2:55 pm 14:55 Mostly Cloudy 55 13 55 13 100 100 VRB 7 11 29.58 1002 7 11 0.02 0.51
3:15 pm 15:15 Cloudy 55 13 54 12 94 94 ESE 7 11 29.58 1002 8 13 N/A
3:35 pm 15:35 Cloudy 55 13 54 12 94 94 E 13 20 29.56 1001 9 14 N/A
3:55 pm 15:55 Cloudy 55 13 54 12 94 94 E 9 15 29.56 1001 10 16 N/A
4:15 pm 16:15 Cloudy 55 13 54 12 94 94 E 10 17 29.56 1001 10 16 N/A
4:35 pm 16:35 Cloudy 55 13 54 12 94 94 E 13 20 29.55 1001 10 16 N/A
4:55 pm 16:55 Cloudy 57 14 54 12 88 88 VRB 3 6 29.55 1001 10 16 N/A
5:15 pm 17:15 Cloudy 55 13 54 12 94 94 E 9 15 29.55 1001 10 16 N/A
5:35 pm 17:35 Cloudy 57 14 54 12 88 88 VRB 5 7 29.55 1001 10 16 N/A
5:55 pm 17:55 Cloudy 57 14 54 12 88 88 VRB 5 7 29.55 1001 10 16 N/A
6:15 pm 18:15 Cloudy 57 14 54 12 88 88 ESE 9 15 29.57 1001 10 16 N/A
6:35 pm 18:35 Cloudy 55 13 54 12 94 94 VRB 5 7 29.56 1001 10 16 N/A
6:55 pm 18:55 Cloudy 55 13 54 12 94 94 E 6 9 29.56 1001 10 16 N/A
7:15 pm 19:15 Cloudy 55 13 54 12 94 94 VRB 7 11 29.55 1001 10 16 N/A
7:35 pm 19:35 Cloudy 55 13 54 12 94 94 E 7 11 29.55 1001 10 16 N/A
7:55 pm 19:55 Cloudy 55 13 54 12 94 94 E 8 13 29.55 1001 10 16 N/A
8:15 pm 20:15 Cloudy 55 13 54 12 94 94 VRB 6 9 29.56 1001 10 16 N/A
8:35 pm 20:35 Cloudy 55 13 54 12 94 94 ESE 8 13 29.55 1001 10 16 N/A
8:55 pm 20:55 Cloudy 55 13 54 12 94 94 SW 7 11 29.58 1002 10 16 N/A
9:15 pm 21:15 Cloudy with Light Rain 55 13 55 13 100 100 ESE 3 6 29.56 1001 5 8 N/A
9:35 pm 21:35 Mostly Cloudy with Light Rain 55 13 55 13 100 100 N N/A 29.56 1001 3 5 N/A
9:55 pm 21:55 Cloudy 55 13 55 13 100 100 N N/A 29.56 1001 8 13 0.06 1.52
10:15 pm 22:15 Cloudy with Light Rain 55 13 54 12 94 94 S 6 9 29.57 1001 5 8 N/A
10:35 pm 22:35 Mostly Cloudy with Light Rain 55 13 54 12 94 94 VRB 3 6 29.56 1001 7 11 N/A
10:55 pm 22:55 Cloudy 55 13 54 12 94 94 SE 5 7 29.55 1001 10 16 0.03 0.76
11:15 pm 23:15 Cloudy 55 13 54 12 94 94 N N/A 29.54 1000 9 14 N/A
11:35 pm 23:35 Cloudy 55 13 54 12 94 94 N N/A 29.54 1000 9 14 N/A
11:55 pm 23:55 Mostly Cloudy 55 13 54 12 94 94 N N/A 29.54 1000 9 14 N/A

Powered by AerisWeather